Date String (YYYY-MM-DD hh:mm:ss) UTC,Instrument flags,Ambient pressure (hPa),Sample flow (lpm),Bypass flow (lpm),Sample temperature (°C),Ambient temperature (°C),ASC tube jacket temperature (°C),LED temperature (°C),Box temperature (°C),Sample RH (%),Span deviation,Mass concentration (μg/m³),Mass concentration (μg/m³),Mass concentration (μg/m³)
DateTimeUTC,F1_M11,P_M11,Q1_M11,Q2_M11,T1_M11,T2_M11,T3_M11,T4_M11,T5_M11,U1_M11,ZSPAN_M11,X2_M11,X0_M11,X1_M11
2022-01-23 10:00:00,,0830.3,5.00,0.00,22.5,21.9,00.0,31.5,24.2,08.4,0000.0,0002.56,0009.75,0001.29
2022-01-23 10:01:00,,0830.2,5.00,0.00,22.4,21.8,00.0,31.5,24.1,08.4,0000.0,0002.35,0008.87,0001.27
2022-01-23 10:02:00,,0830.2,5.01,0.00,22.4,21.8,00.0,31.5,24.1,08.4,0000.0,0002.18,0007.53,0001.27
2022-01-23 10:03:00,,0830.1,4.99,0.00,22.4,21.8,00.0,31.4,24.1,08.4,0000.0,0002.08,0006.91,0001.27
2022-01-23 10:04:00,,0830.1,4.99,0.00,22.4,21.7,00.0,31.4,24.1,08.3,0000.0,0001.99,0006.05,0001.27
2022-01-23 10:05:00,,0830.1,5.00,0.00,22.4,21.7,00.0,31.4,24.1,08.4,0000.0,0001.92,0004.52,0001.28
2022-01-23 10:06:00,,0830.1,5.02,0.00,22.3,21.7,00.0,31.4,24.0,08.3,0000.0,0001.89,0004.28,0001.28
2022-01-23 10:07:00,,0830.1,4.99,0.00,22.3,21.6,00.0,31.4,24.0,08.3,0000.0,0001.85,0004.13,0001.29
2022-01-23 10:08:00,,0830.1,5.00,0.00,22.3,21.6,00.0,31.4,24.0,08.4,0000.0,0001.81,0003.62,0001.29
2022-01-23 10:09:00,,0830.0,4.99,0.00,22.3,21.6,00.0,31.4,24.0,08.5,0000.0,0001.73,0002.84,0001.27
2022-01-23 10:10:00,,0830.0,5.01,0.00,22.3,21.6,00.0,31.3,24.0,08.5,0000.0,0001.64,0002.46,0001.26
2022-01-23 10:11:00,,0830.0,4.99,0.00,22.2,21.5,00.0,31.3,23.9,08.5,0000.0,0001.57,0002.26,0001.26
2022-01-23 10:12:00,,0830.0,5.00,0.00,22.2,21.5,00.0,31.3,23.9,08.5,0000.0,0001.53,0002.13,0001.26
2022-01-23 10:13:00,,0830.0,5.01,0.00,22.3,22.0,00.0,31.3,24.0,08.4,0000.0,0001.54,0002.14,0001.27
2022-01-23 10:14:00,,0830.1,5.00,0.00,22.4,22.8,00.0,31.4,24.3,08.4,0000.0,0001.55,0002.22,0001.27
2022-01-23 10:15:00,,0830.0,4.99,0.00,22.6,23.3,00.0,31.4,24.6,08.5,0000.0,0001.57,0002.33,0001.29
2022-01-23 10:16:00,,0830.0,5.00,0.00,22.6,23.1,00.0,31.4,24.6,08.4,0000.0,0001.56,0002.51,0001.31
2022-01-23 10:17:00,,0829.9,5.00,0.00,22.6,22.9,00.0,31.5,24.5,08.5,0000.0,0001.55,0002.62,0001.31
2022-01-23 10:18:00,,0830.0,5.01,0.00,22.6,22.7,00.0,31.5,24.5,08.5,0000.0,0001.55,0002.58,0001.33
2022-01-23 10:19:00,,0829.9,5.00,0.00,22.6,22.5,00.0,31.5,24.4,08.6,0000.0,0001.59,0002.61,0001.36
2022-01-23 10:20:00,,0829.9,5.01,0.00,22.6,22.3,00.0,31.5,24.3,08.7,0000.0,0001.64,0002.60,0001.41
2022-01-23 10:21:00,,0829.9,5.00,0.00,22.6,22.2,00.0,31.5,24.3,08.7,0000.0,0001.67,0002.63,0001.45
2022-01-23 10:22:00,,0829.8,4.99,0.00,22.6,22.1,00.0,31.5,24.3,08.7,0000.0,0001.73,0002.76,0001.50
2022-01-23 10:23:00,,0829.8,5.01,0.00,22.5,22.0,00.0,31.5,24.2,08.8,0000.0,0001.78,0002.86,0001.54
2022-01-23 10:24:00,,0829.9,4.99,0.00,22.5,22.0,00.0,31.5,24.2,08.8,0000.0,0001.84,0003.54,0001.59
2022-01-23 10:25:00,,0829.8,5.01,0.00,22.5,21.9,00.0,31.5,24.2,08.8,0000.0,0001.90,0004.33,0001.64
2022-01-23 10:26:00,,0829.8,4.99,0.00,22.5,21.8,00.0,31.5,24.2,08.9,0000.0,0001.91,0004.24,0001.66
2022-01-23 10:27:00,,0829.8,5.00,0.00,22.4,21.8,00.0,31.5,24.1,09.0,0000.0,0001.96,0004.12,0001.70
2022-01-23 10:28:00,,0829.8,5.00,0.00,22.4,21.8,00.0,31.5,24.1,09.0,0000.0,0002.01,0003.98,0001.74
2022-01-23 10:29:00,,0829.8,5.01,0.00,22.4,21.7,00.0,31.4,24.1,09.1,0000.0,0002.06,0004.07,0001.79
2022-01-23 10:30:00,,0829.8,4.99,0.00,22.4,21.7,00.0,31.4,24.1,09.1,0000.0,0002.09,0004.08,0001.84
2022-01-23 10:31:00,,0829.8,5.01,0.00,22.4,21.7,00.0,31.4,24.1,09.2,0000.0,0002.14,0004.14,0001.87
2022-01-23 10:32:00,,0829.8,5.00,0.00,22.3,21.7,00.0,31.4,24.1,09.3,0000.0,0002.22,0004.26,0001.92
2022-01-23 10:33:00,,0829.8,5.00,0.00,22.3,21.7,00.0,31.4,24.1,09.6,0000.0,0002.32,0004.29,0002.00
2022-01-23 10:34:00,,0829.8,5.01,0.00,22.3,21.6,00.0,31.4,24.1,09.7,0000.0,0002.49,0004.57,0002.11
2022-01-23 10:35:00,,0829.8,5.00,0.00,22.3,21.6,00.0,31.4,24.1,09.7,0000.0,0002.61,0004.33,0002.22
2022-01-23 10:36:00,,0829.8,5.00,0.00,22.3,21.6,00.0,31.3,24.1,09.6,0000.0,0002.68,0004.22,0002.30
2022-01-23 10:37:00,,0829.8,4.99,0.00,22.3,21.6,00.0,31.3,24.1,09.5,0000.0,0002.76,0005.21,0002.37
2022-01-23 10:38:00,,0829.8,5.00,0.00,22.3,21.6,00.0,31.3,24.1,09.6,0000.0,0002.83,0005.31,0002.44
2022-01-23 10:39:00,,0829.8,5.00,0.00,22.3,21.6,00.0,31.3,24.1,09.7,0000.0,0002.94,0005.44,0002.54
2022-01-23 10:40:00,,0829.8,4.99,0.00,22.3,21.6,00.0,31.3,24.1,09.7,0000.0,0003.06,0005.62,0002.62
2022-01-23 10:41:00,,0829.8,5.01,0.00,22.3,21.6,00.0,31.3,24.1,09.7,0000.0,0003.11,0005.68,0002.67
2022-01-23 10:42:00,,0829.8,4.99,0.00,22.3,21.6,00.0,31.3,24.1,09.6,0000.0,0003.14,0005.82,0002.71
2022-01-23 10:43:00,,0829.9,5.01,0.00,22.3,21.6,00.0,31.3,24.0,09.6,0000.0,0003.15,0006.06,0002.73
2022-01-23 10:44:00,,0829.9,5.01,0.00,22.4,22.0,00.0,31.3,24.2,09.5,0000.0,0003.15,0007.01,0002.72
2022-01-23 10:45:00,,0829.9,5.00,0.00,22.5,22.8,00.0,31.4,24.4,09.4,0000.0,0003.08,0006.78,0002.66
2022-01-23 10:46:00,,0830.0,5.00,0.00,22.6,23.3,00.0,31.4,24.6,09.4,0000.0,0003.01,0006.57,0002.61
2022-01-23 10:47:00,,0830.0,4.99,0.00,22.7,23.1,00.0,31.4,24.7,09.4,0000.0,0002.99,0005.89,0002.59
2022-01-23 10:48:00,,0830.0,5.01,0.00,22.7,22.9,00.0,31.4,24.6,09.4,0000.0,0003.00,0005.04,0002.59
2022-01-23 10:49:00,,0830.0,5.01,0.00,22.7,22.7,00.0,31.5,24.6,09.4,0000.0,0003.00,0004.99,0002.58
2022-01-23 10:50:00,,0830.0,4.99,0.00,22.7,22.6,00.0,31.5,24.5,09.3,0000.0,0002.96,0004.91,0002.55
2022-01-23 10:51:00,,0830.0,4.99,0.00,22.7,22.4,00.0,31.5,24.5,09.3,0000.0,0002.88,0004.94,0002.50
2022-01-23 10:52:00,,0830.0,5.00,0.00,22.7,22.3,00.0,31.5,24.5,09.3,0000.0,0002.83,0004.88,0002.47
2022-01-23 10:53:00,,0830.0,5.00,0.00,22.6,22.2,00.0,31.5,24.4,09.3,0000.0,0002.82,0004.86,0002.46
2022-01-23 10:54:00,,0830.0,5.00,0.00,22.6,22.2,00.0,31.5,24.4,09.3,0000.0,0002.81,0005.42,0002.46
2022-01-23 10:55:00,,0830.0,4.99,0.00,22.6,22.1,00.0,31.5,24.4,09.3,0000.0,0002.78,0004.45,0002.45
2022-01-23 10:56:00,,0830.0,5.01,0.00,22.6,22.0,00.0,31.5,24.4,09.2,0000.0,0002.80,0004.91,0002.44
2022-01-23 10:57:00,,0830.0,4.99,0.00,22.6,22.0,00.0,31.5,24.4,09.2,0000.0,0002.85,0005.51,0002.41
2022-01-23 10:58:00,,0830.0,5.02,0.00,22.6,22.0,00.0,31.5,24.4,09.2,0000.0,0002.85,0006.92,0002.38
2022-01-23 10:59:00,,0830.0,4.99,0.00,22.6,21.9,00.0,31.5,24.4,09.1,0000.0,0002.81,0007.45,0002.33
